{"data":{"norad_id":59112,"intl_designator":"2024-043Q","name":"SONATE-2","alt_names":[],"object_type":"PAYLOAD","status":"ACTIVE","operator":null,"country":"GER","launch_date":"2024-03-04","launch_site_code":"AFWTR","launch_vehicle":null,"mission":null,"orbit_class":"UNKNOWN","rcs_meters":null,"size_class":null,"mass_kg":null,"dimensions":null,"purposes":["comms"],"wikipedia_slug":null,"has_3d_model":false,"image_url":null,"decayed_at":null,"tle_current":{"epoch":"2026-05-25T03:24:52.897824Z","epoch_age_seconds":58817,"freshness":"FRESH","line1":"1 59112U 24043Q   26145.14227891  .00037565  00000+0  52297-3 0  9996","line2":"2 59112  97.5510 294.1608 0005850 279.7869  80.2725 15.56848979124309","mean_motion":15.56848979,"eccentricity":0.000585,"inclination_deg":97.551,"raan_deg":294.1608,"arg_perigee_deg":279.7869,"mean_anomaly_deg":80.2725,"bstar":0.00052297,"rev_number":12430,"period_min":92.494520626204,"perigee_km":392.81986740269,"apogee_km":400.74652403168,"semimajor_km":6774.9201957172,"source":"CELESTRAK","updated_at":"2026-05-25T13:38:23.293407Z"}}}